Regional Weather Roundup
Issued by NWS Bismarck, ND

Home | Current Version | Previous Version | Text Only | Print | Product List | Glossary On
Versions: 1 2 3 4 5 6 7 8 9 10 11 12 13 14 15 16 17 18 19 20 21 22 23 24 25 26 27 28 29 30 31 32 33 34 35 36 37 38 39 40 41 42 43 44 45 46 47 48 49 50
000
ASUS43 KBIS 230010
RWRBIS

NWR BROADCAST TEXT
NATIONAL WEATHER SERVICE BISMARCK ND
700 PM CDT MON MAY 22 2017

NOTE: "FAIR" INDICATES FEW OR NO CLOUDS BELOW 12,000 FEET WITH NO
SIGNIFICANT WEATHER AND/OR OBSTRUCTIONS TO VISIBILITY.


CITY           SKY/WX    TMP DP  RH WIND       PRES   REMARKS
WILLISTON      CLOUDY    66  33  29 N13       30.06S
MINOT          CLOUDY    62  34  35 N17G25    29.98R
MINOT AFB      CLOUDY    62  33  34 NE22G29   29.98R
BISMARCK       LGT RAIN  59  41  51 NW12G23   29.99S
DICKINSON      CLOUDY    58  32  37 N15G26    30.03S
GARRISON         N/A     60  36  40 NW12      29.98S
HETTINGER ARPT CLOUDY    57  34  41 N16G24    30.07R
JAMESTOWN      LGT RAIN  50  45  83 NW9       29.93R
HAZEN          CLOUDY    61  34  36 N10G17    30.01S
LINTON         MOCLDY    57  43  58 NW12G18   30.00S
MANDAN         MOCLDY    57  39  51 NW15      30.00S
STANLEY        MOCLDY    61  34  36 N16       30.05S
TIOGA          CLOUDY    63  32  31 N20       30.06S
WATFORD CITY   MOCLDY    63  36  36 N10       30.05S
$$

CITY           SKY/WX    TMP DP  RH WIND       PRES   REMARKS
GRAND FORKS    CLOUDY    52  48  86 N17       29.88R
GRAND FORKS AF CLOUDY    50  47  87 N17G23    29.89R
DEVILS LAKE    LGT RAIN  49  45  86 N13       29.96R
FARGO          LGT RAIN  52  44  74 N15       29.87F
CAVALIER       MOCLDY    52  46  82 N20       29.91R
GRAFTON        RAIN      52  48  87 N18       29.91R
GWINNER        MOCLDY    52  43  71 MISG      29.91R
LANGDON        MOCLDY    50  48  93 N21G26    29.95R
ROLLA          CLOUDY    52  37  58 N24G31    29.99R
$$

CITY           SKY/WX    TMP DP  RH WIND       PRES   REMARKS
ABERDEEN       CLOUDY    57  37  47 N17G25    29.93R
MOBRIDGE       CLOUDY    59  37  44 N18G30    29.97R
BUFFALO          N/A     60  37  42 N18G26    30.02S
RAPID CITY     PTSUNNY   54  39  57 N18       30.09R
GLASGOW        CLOUDY    66  32  28 N15       30.14R
SIDNEY         FAIR      65  35  33 N13       30.07S
WOLF POINT     CLOUDY    69  31  24 N17G25    30.11R
GLENDIVE       FAIR      63  32  31 N20       30.10S
MILES CITY     CLOUDY    60  38  43 NE12      30.13S
BAKER          PTSUNNY   60  38  43 N14G24    30.11S
$$

CITY           SKY/WX    TMP DP  RH WIND       PRES   REMARKS
BILLINGS       FAIR      68  33  27 N13       30.17S
GREAT FALLS    CLOUDY    70  36  28 NW5       30.20S
REGINA         MOSUNNY   68  28  22 N20G25    30.10R
ESTEVAN        PTSUNNY   64  32  29 N20       30.05R
$$





USA.gov is the U.S. government's official web portal to all federal, state and local government web resources and services.